Tracking 33181 objects as of 19-Feb-2026
HD Live streaming from Space Station
objects crossing your sky now

DELTA 1 DEB

Track DELTA 1 DEB now!
10-day predictions


NORAD ID: 10757
Int'l Code: 1976-077BE
Perigee: 1,500.6 km
Apogee: 1,870.6 km
Inclination: 101.9 °
Period: 119.9 minutes
Semi major axis: 8056 km
RCS: 0.0976 m2 (small)
Launch date: July 29, 1976
Source: United States (US)
Launch site: AIR FORCE WESTERN TEST RANGE (AFWTR)

Note: This is SATELLITE DEBRIS
Your satellite tracking list
Your tracking list is empty




NASA's NSSDC Master Catalog

Two Line Element Set (TLE):
1 10757U 76077BE  26048.39243355 -.00000444  00000-0 -46023-2 0  9992
2 10757 101.9086 105.8397 0229623 250.8641 175.3784 12.00530535169319
Source of the keplerian elements: AFSPC